Camden, SC

1:45 PM EDT on June 22, 2017 (GMT -0400)
Woodward

Weather History for KCDN - February, 2014

Change the Weather History Date:

Wednesday, February 12, 2014

  Actual Average (KSSC) Record (KSSC)
Temperature  
Mean Temperature 30 °F -  
Max Temperature 32 °F 57 °F 77 °F (2017)
Min Temperature 28 °F 35 °F 22 °F (2012)
Degree Days  
Heating Degree Days 35    
Moisture  
Dew Point 28 °F    
Average Humidity 92    
Maximum Humidity 100    
Minimum Humidity 80    
Precipitation  
Precipitation 3.06 in - - ()
Sea Level Pressure  
Sea Level Pressure 30.16 in    
Wind  
Wind Speed 8 mph (NE)    
Max Wind Speed 18 mph    
Max Gust Speed 26 mph    
Visibility 4 miles    
Events Rain , Snow , Thunderstorm    
Averages and records for this station are not official NWS values.
T = Trace of Precipitation, MM = Missing Value Source: NWS Daily Summary

Daily Weather History Graph

Daily Weather History Graph

Search for Another Location

Airport or City:

Trip Planner

Search our weather history database for the weather conditions in past years. The results will help you decide how hot, cold, wet, or windy it might be!

Date:

Astronomy

Feb. 12, 2014 Rise Set
Actual Time 7:10 AM EST 6:03 PM EST
Civil Twilight 6:44 AM EST 6:28 PM EST
Nautical Twilight 6:14 AM EST 6:58 PM EST
Astronomical Twilight 5:45 AM EST 7:27 PM EST
Moon 4:17 PM EST (2/12) 5:23 AM EST (2/12)
Length of Visible Light 11h 44m
Length of Day
10h 52m
Waxing Gibbous, 95% of the Moon is Illuminated
Feb 12
Waxing Gibbous
Feb 14
Full
Feb 22
Last Quarter
Mar 1
New
Mar 8
First Quarter

Hourly Weather History & Observations

Time (EST) Temp. Windchill Dew Point Humidity Pressure Visibility Wind Dir Wind Speed Gust Speed Precip Events Conditions
12:15 AM 32.0 °F 26.4 °F 28.4 °F 87% 30.35 in 9.0 mi ENE 5.8 mph - 0.00 in   Overcast
12:35 AM 32.0 °F 26.4 °F 28.4 °F 87% 30.35 in 8.0 mi ENE 5.8 mph - 0.00 in   Overcast
12:55 AM 32.0 °F 25.6 °F 28.4 °F 87% 30.35 in 10.0 mi ENE 6.9 mph - 0.00 in   Overcast
1:15 AM 32.0 °F 27.5 °F 28.4 °F 87% 30.36 in 10.0 mi NE 4.6 mph - 0.00 in   Overcast
1:35 AM 32.0 °F 24.8 °F 28.4 °F 87% 30.36 in 8.0 mi NE 8.1 mph - 0.00 in   Overcast
1:55 AM 32.0 °F 24.2 °F 28.4 °F 87% 30.35 in 10.0 mi NE 9.2 mph - 0.00 in   Overcast
2:15 AM 32.0 °F 24.8 °F 28.4 °F 87% 30.34 in 10.0 mi NE 8.1 mph - 0.00 in   Overcast
2:35 AM 32.0 °F 24.2 °F 26.6 °F 80% 30.35 in 10.0 mi NE 9.2 mph - 0.00 in   Overcast
2:55 AM 32.0 °F 24.8 °F 26.6 °F 80% 30.35 in 10.0 mi NE 8.1 mph - 0.00 in   Overcast
3:15 AM 32.0 °F 24.8 °F 26.6 °F 80% 30.33 in 10.0 mi NE 8.1 mph - 0.00 in   Mostly Cloudy
3:35 AM 32.0 °F 24.8 °F 26.6 °F 80% 30.34 in 10.0 mi NE 8.1 mph - 0.00 in   Partly Cloudy
3:55 AM 32.0 °F 24.2 °F 26.6 °F 80% 30.34 in 10.0 mi NE 9.2 mph - 0.00 in   Scattered Clouds
4:15 AM 32.0 °F 24.2 °F 26.6 °F 80% 30.33 in 10.0 mi NE 9.2 mph - 0.00 in   Mostly Cloudy
4:35 AM 32.0 °F 22.5 °F 26.6 °F 80% 30.32 in 10.0 mi NE 12.7 mph - 0.00 in   Partly Cloudy
4:55 AM 32.0 °F 23.0 °F 26.6 °F 80% 30.31 in 10.0 mi NE 11.5 mph 17.3 mph 0.00 in   Clear
5:15 AM 32.0 °F 23.0 °F 26.6 °F 80% 30.30 in 9.0 mi NE 11.5 mph - 0.00 in Rain Light Rain
5:35 AM 32.0 °F 23.0 °F 26.6 °F 80% 30.29 in 8.0 mi NE 11.5 mph 17.3 mph 0.01 in Rain Light Rain
5:55 AM 32.0 °F 23.0 °F 26.6 °F 80% 30.31 in 7.0 mi NE 11.5 mph - 0.03 in Rain Light Rain
6:15 AM 32.0 °F 24.2 °F 26.6 °F 80% 30.31 in 8.0 mi ENE 9.2 mph - 0.00 in Rain Light Rain
6:35 AM 30.2 °F 21.9 °F 24.8 °F 80% 30.33 in 7.0 mi ENE 9.2 mph - 0.03 in Rain Light Freezing Rain
6:55 AM 30.2 °F 20.8 °F 24.8 °F 80% 30.33 in 6.0 mi NE 11.5 mph 17.3 mph 0.04 in Rain Light Freezing Rain
7:15 AM 30.2 °F 22.6 °F 26.6 °F 86% 30.36 in 2.0 mi NE 8.1 mph - 0.02 in Snow Light Snow
7:35 AM 30.2 °F 19.8 °F 26.6 °F 86% 30.36 in 0.8 mi ENE 13.8 mph 20.7 mph 0.13 in Snow Light Snow
7:55 AM 28.4 °F 18.5 °F 26.6 °F 93% 30.36 in 0.5 mi NE 11.5 mph - 0.37 in Snow Light Snow
8:15 AM 28.4 °F 16.2 °F 26.6 °F 93% 30.34 in 0.5 mi NE 17.3 mph 24.2 mph 0.23 in Snow Light Snow
8:35 AM 28.4 °F 17.0 °F 26.6 °F 93% 30.33 in 0.5 mi NE 15.0 mph 19.6 mph 0.61 in Snow Light Snow
8:55 AM 28.4 °F 16.2 °F 26.6 °F 93% 30.33 in 1.0 mi NE 17.3 mph 24.2 mph 0.86 in Snow Light Snow
9:15 AM 28.4 °F 17.5 °F 26.6 °F 93% 30.33 in 0.8 mi NE 13.8 mph 20.7 mph 0.32 in Snow Light Snow
9:35 AM 28.4 °F 16.2 °F 26.6 °F 93% 30.31 in - NNE 17.3 mph 23.0 mph 0.40 in Snow , Thunderstorm Light Thunderstorms and Snow
9:55 AM 28.4 °F 15.8 °F 26.6 °F 93% 30.30 in - NE 18.4 mph 26.5 mph 0.47 in Snow , Thunderstorm Light Thunderstorms and Snow
10:15 AM 28.4 °F 18.5 °F 26.6 °F 93% 30.32 in 1.8 mi NE 11.5 mph 16.1 mph 0.04 in Snow , Thunderstorm Light Snow
10:35 AM 28.4 °F 19.1 °F 26.6 °F 93% 30.33 in 1.0 mi NE 10.4 mph 16.1 mph 0.12 in Snow , Thunderstorm Light Snow
10:55 AM 28.4 °F 17.5 °F 26.6 °F 93% 30.30 in 1.0 mi NE 13.8 mph - 0.19 in Snow , Thunderstorm Light Snow
11:15 AM 28.4 °F 18.0 °F 26.6 °F 93% 30.29 in 1.5 mi NE 12.7 mph - 0.03 in Snow , Thunderstorm Light Snow
11:35 AM 28.4 °F 17.5 °F 26.6 °F 93% 30.27 in 2.0 mi NE 13.8 mph 19.6 mph 0.07 in Snow Light Snow
11:55 AM 28.4 °F 17.5 °F 26.6 °F 93% 30.25 in 2.5 mi NE 13.8 mph - 0.10 in Snow Light Snow
12:15 PM 28.4 °F 17.5 °F 26.6 °F 93% 30.24 in 2.5 mi NE 13.8 mph 21.9 mph 0.02 in Snow Light Snow
12:35 PM 28.4 °F 18.5 °F 26.6 °F 93% 30.22 in 2.0 mi NE 11.5 mph 23.0 mph 0.06 in Snow , Thunderstorm Light Snow
12:55 PM 28.4 °F 18.5 °F 28.4 °F 100% 30.21 in 1.8 mi NNE 11.5 mph 20.7 mph 0.09 in Snow , Thunderstorm Light Snow
1:15 PM 28.4 °F 16.6 °F 28.4 °F 100% 30.19 in 1.5 mi NNE 16.1 mph - 0.02 in Snow Light Snow
1:35 PM 30.2 °F 18.9 °F 28.4 °F 93% 30.16 in 1.5 mi NE 16.1 mph 24.2 mph 0.07 in Snow Light Snow
1:55 PM 30.2 °F 19.8 °F 28.4 °F 93% 30.13 in 1.8 mi NE 13.8 mph 23.0 mph 0.11 in Rain Light Freezing Rain
2:15 PM 30.2 °F 20.8 °F 28.4 °F 93% 30.13 in 2.5 mi NNE 11.5 mph 20.7 mph 0.05 in Rain Light Freezing Rain
2:35 PM 30.2 °F 19.8 °F 28.4 °F 93% 30.12 in 1.8 mi NNE 13.8 mph 19.6 mph 0.09 in Rain Light Freezing Rain
2:55 PM 30.2 °F 20.2 °F 28.4 °F 93% 30.09 in 1.8 mi NNE 12.7 mph - 0.13 in Snow Light Snow
3:15 PM 30.2 °F - 28.4 °F 93% 30.06 in - Calm Calm - 0.00 in Snow Light Snow
3:35 PM 30.2 °F - 28.4 °F 93% 30.05 in 2.5 mi Calm Calm - 0.01 in Rain Light Freezing Rain
3:55 PM 30.2 °F - 28.4 °F 93% 30.02 in 2.5 mi Calm Calm - 0.01 in Snow Light Snow
4:15 PM 30.2 °F - 28.4 °F 93% 30.02 in 1.5 mi Calm Calm - 0.00 in Snow Light Snow
4:35 PM 30.2 °F - 30.2 °F 100% 30.04 in 1.0 mi Calm Calm - 0.01 in Snow Light Snow
4:55 PM 30.2 °F - 30.2 °F 100% 30.02 in - Calm Calm - 0.20 in Rain Light Freezing Rain
5:15 PM 30.2 °F - 30.2 °F 100% 30.01 in - Calm Calm - 0.03 in Rain Light Freezing Rain
5:35 PM 32.0 °F - 30.2 °F 93% 30.00 in - Calm Calm - 0.13 in Rain Heavy Rain
5:55 PM 30.2 °F - 30.2 °F 100% 29.99 in 0.8 mi Calm Calm - 0.31 in Rain Light Freezing Rain
6:15 PM 30.2 °F - 30.2 °F 100% 29.97 in 1.8 mi Calm Calm - 0.01 in Rain Light Freezing Rain
6:35 PM 30.2 °F - 30.2 °F 100% 29.98 in 3.0 mi Calm Calm - 0.02 in   Overcast
6:55 PM 30.2 °F - 30.2 °F 100% 29.98 in 3.0 mi Calm Calm - 0.04 in Rain Light Freezing Rain
7:15 PM 30.2 °F - 30.2 °F 100% 29.97 in 2.5 mi Calm Calm - 0.02 in Rain Light Freezing Rain
7:35 PM 30.2 °F - 30.2 °F 100% 29.96 in 4.0 mi Calm Calm - 0.03 in   Overcast
7:55 PM 30.2 °F - 30.2 °F 100% 29.93 in 6.0 mi Calm Calm - 0.03 in   Overcast
8:15 PM 30.2 °F - 30.2 °F 100% 29.92 in 1.8 mi Calm Calm - 0.02 in Rain Light Freezing Rain
8:35 PM 32.0 °F - 30.2 °F 93% 29.91 in 1.8 mi Calm Calm - 0.06 in Rain Light Rain
8:55 PM 32.0 °F - 30.2 °F 93% 29.89 in 3.0 mi Calm Calm - 0.06 in   Overcast
9:15 PM 32.0 °F - 30.2 °F 93% 29.89 in 3.0 mi Calm Calm - 0.00 in   Overcast
9:35 PM 32.0 °F - 32.0 °F 100% 29.85 in 5.0 mi Calm Calm - 0.00 in   Overcast
9:55 PM 32.0 °F - 32.0 °F 100% 29.83 in 4.0 mi Calm Calm - 0.00 in   Overcast
10:15 PM 32.0 °F - 32.0 °F 100% 29.83 in 7.0 mi Calm Calm - 0.00 in   Overcast
10:35 PM 32.0 °F - 32.0 °F 100% 29.80 in 8.0 mi Calm Calm - 0.00 in   Overcast
10:55 PM 32.0 °F - 32.0 °F 100% 29.80 in 2.5 mi Calm Calm - 0.00 in Rain Light Rain
11:15 PM 32.0 °F - 32.0 °F 100% 29.79 in 1.8 mi Calm Calm - 0.02 in Rain Light Rain
11:35 PM 32.0 °F - 32.0 °F 100% 29.78 in 5.0 mi Calm Calm - 0.02 in   Overcast
11:55 PM 32.0 °F - 32.0 °F 100% 29.78 in 3.0 mi Calm Calm - 0.02 in   Light Drizzle